Previsão horária em Barnowiec

Hoje, 5 Agosto, Quinta-feira

Tempo Temperatura Precipitação Vento Pressão Humidade
00:00 +13°C° 0 mm 0 m/s 706 mmHg 93%
01:00 +13°C° 0 mm 0 m/s 706 mmHg 94%
02:00 +13°C° 0.1 mm 0 m/s 706 mmHg 94%
03:00 +13°C° 0.1 mm 0 m/s 705 mmHg 94%
04:00 +13°C° 0.1 mm 0 m/s 705 mmHg 94%
05:00 +14°C° 0.1 mm 0 m/s 705 mmHg 94%
06:00 +14°C° 0.1 mm 0 m/s 705 mmHg 93%
07:00 +15°C° 0.1 mm 0 m/s 704 mmHg 93%
08:00 +15°C° 0 mm 0 m/s 704 mmHg 89%
09:00 +18°C° 0 mm 1 m/s 704 mmHg 85%
10:00 +19°C° 0 mm 1 m/s 704 mmHg 81%
11:00 +19°C° 0.5 mm 1 m/s 704 mmHg 85%
12:00 +18°C° 0.5 mm 1 m/s 703 mmHg 90%
13:00 +18°C° 0.5 mm 1 m/s 703 mmHg 94%
14:00 +16°C° 2.7 mm 1 m/s 702 mmHg 96%
15:00 +16°C° 2.7 mm 1 m/s 701 mmHg 97%
16:00 +16°C° 2.7 mm 1 m/s 701 mmHg 99%
17:00 +15°C° 6.6 mm 2 m/s 700 mmHg 99%
18:00 +15°C° 6.6 mm 2 m/s 700 mmHg 99%
19:00 +15°C° 6.6 mm 2 m/s 699 mmHg 99%
20:00 +15°C° 3.2 mm 2 m/s 699 mmHg 99%
21:00 +15°C° 3.2 mm 2 m/s 699 mmHg 99%
22:00 +15°C° 3.2 mm 2 m/s 700 mmHg 98%
23:00 +15°C° 0.2 mm 1 m/s 700 mmHg 98%

Amanhã, 6 Agosto, Sexta-feira

Tempo Temperatura Precipitação Vento Pressão Humidade
00:00 +15°C° 0.2 mm 1 m/s 700 mmHg 98%
01:00 +15°C° 0.2 mm 1 m/s 700 mmHg 98%
02:00 +15°C° 0.2 mm 1 m/s 700 mmHg 98%
03:00 +14°C° 0.2 mm 1 m/s 699 mmHg 97%
04:00 +14°C° 0.2 mm 2 m/s 699 mmHg 96%
05:00 +14°C° 0.3 mm 2 m/s 700 mmHg 96%
06:00 +14°C° 0.3 mm 2 m/s 700 mmHg 95%
07:00 +14°C° 0.3 mm 2 m/s 700 mmHg 95%
08:00 +14°C° 0 mm 2 m/s 701 mmHg 92%
09:00 +14°C° 0 mm 3 m/s 701 mmHg 89%
10:00 +14°C° 0 mm 3 m/s 701 mmHg 86%
11:00 +14°C° 0 mm 3 m/s 702 mmHg 84%
12:00 +15°C° 0 mm 4 m/s 702 mmHg 81%
13:00 +15°C° 0 mm 4 m/s 702 mmHg 78%
14:00 +15°C° 0 mm 4 m/s 703 mmHg 76%
15:00 +17°C° 0 mm 4 m/s 703 mmHg 74%
16:00 +17°C° 0 mm 3 m/s 703 mmHg 71%
17:00 +16°C° 0 mm 2 m/s 703 mmHg 77%
18:00 +15°C° 0 mm 1 m/s 703 mmHg 84%
19:00 +13°C° 0 mm 1 m/s 703 mmHg 90%
20:00 +13°C° 0 mm 1 m/s 703 mmHg 91%
21:00 +12°C° 0 mm 1 m/s 703 mmHg 92%
22:00 +12°C° 0 mm 1 m/s 704 mmHg 93%
23:00 +12°C° 0 mm 1 m/s 704 mmHg 92%

Depois de amanhã, 7 Agosto, Sábado

Tempo Temperatura Precipitação Vento Pressão Humidade
00:00 +12°C° 0 mm 2 m/s 704 mmHg 92%
01:00 +10°C° 0 mm 2 m/s 704 mmHg 92%
02:00 +10°C° 0 mm 2 m/s 704 mmHg 91%
03:00 +10°C° 0 mm 2 m/s 704 mmHg 91%
04:00 +10°C° 0 mm 2 m/s 704 mmHg 91%
05:00 +13°C° 0 mm 2 m/s 705 mmHg 85%
06:00 +15°C° 0 mm 2 m/s 705 mmHg 78%
07:00 +17°C° 0 mm 2 m/s 705 mmHg 72%
08:00 +19°C° 0 mm 2 m/s 706 mmHg 65%
09:00 +20°C° 0 mm 2 m/s 706 mmHg 58%
10:00 +23°C° 0 mm 2 m/s 706 mmHg 51%
11:00 +24°C° 0 mm 2 m/s 706 mmHg 47%
12:00 +25°C° 0 mm 2 m/s 706 mmHg 44%
13:00 +26°C° 0 mm 1 m/s 706 mmHg 40%
14:00 +27°C° 0 mm 1 m/s 706 mmHg 41%
15:00 +27°C° 0 mm 1 m/s 706 mmHg 42%
16:00 +27°C° 0 mm 1 m/s 706 mmHg 43%
17:00 +24°C° 0 mm 1 m/s 706 mmHg 54%
18:00 +22°C° 0 mm 1 m/s 705 mmHg 65%
19:00 +20°C° 0 mm 1 m/s 705 mmHg 76%
20:00 +18°C° 0 mm 2 m/s 705 mmHg 77%
21:00 +17°C° 0 mm 2 m/s 705 mmHg 78%
22:00 +16°C° 0 mm 2 m/s 705 mmHg 79%
23:00 +16°C° 0 mm 2 m/s 705 mmHg 79%

8 Agosto, Domingo

Tempo Temperatura Precipitação Vento Pressão Humidade
00:00 +16°C° 0 mm 2 m/s 705 mmHg 79%
01:00 +15°C° 0 mm 2 m/s 705 mmHg 80%
02:00 +14°C° 0 mm 3 m/s 704 mmHg 79%
03:00 +14°C° 0 mm 3 m/s 704 mmHg 79%
04:00 +14°C° 0 mm 3 m/s 704 mmHg 78%
05:00 +16°C° 0 mm 3 m/s 704 mmHg 74%
06:00 +18°C° 0 mm 3 m/s 705 mmHg 69%
07:00 +19°C° 0 mm 3 m/s 705 mmHg 65%
08:00 +21°C° 0 mm 3 m/s 705 mmHg 59%
09:00 +24°C° 0 mm 3 m/s 706 mmHg 52%
10:00 +26°C° 0 mm 3 m/s 706 mmHg 46%
11:00 +26°C° 0 mm 3 m/s 707 mmHg 49%
12:00 +26°C° 0 mm 3 m/s 707 mmHg 53%
13:00 +26°C° 0 mm 3 m/s 707 mmHg 56%
14:00 +25°C° 0.1 mm 3 m/s 707 mmHg 61%
15:00 +24°C° 0.1 mm 2 m/s 708 mmHg 66%
16:00 +23°C° 0.1 mm 2 m/s 708 mmHg 72%
17:00 +21°C° 0.1 mm 2 m/s 708 mmHg 78%
18:00 +20°C° 0.1 mm 1 m/s 708 mmHg 84%
19:00 +19°C° 0.1 mm 1 m/s 708 mmHg 91%
20:00 +18°C° 0.4 mm 1 m/s 708 mmHg 92%
21:00 +18°C° 0.4 mm 1 m/s 708 mmHg 94%
22:00 +16°C° 0.4 mm 1 m/s 709 mmHg 96%
23:00 +16°C° 0.4 mm 1 m/s 709 mmHg 96%

9 Agosto, Segunda-feira

Tempo Temperatura Precipitação Vento Pressão Humidade
00:00 +16°C° 0.4 mm 1 m/s 709 mmHg 96%
01:00 +16°C° 0.4 mm 1 m/s 710 mmHg 97%
02:00 +15°C° 0.4 mm 2 m/s 710 mmHg 96%
03:00 +15°C° 0.4 mm 2 m/s 710 mmHg 96%
04:00 +14°C° 0.4 mm 2 m/s 710 mmHg 95%
05:00 +14°C° 0 mm 2 m/s 710 mmHg 93%
06:00 +14°C° 0 mm 2 m/s 711 mmHg 91%
07:00 +14°C° 0 mm 1 m/s 711 mmHg 89%
08:00 +16°C° 0 mm 2 m/s 711 mmHg 80%
09:00 +17°C° 0 mm 2 m/s 712 mmHg 71%
10:00 +19°C° 0 mm 2 m/s 712 mmHg 62%
11:00 +20°C° 0 mm 2 m/s 712 mmHg 59%
12:00 +20°C° 0 mm 2 m/s 712 mmHg 56%
13:00 +21°C° 0 mm 2 m/s 712 mmHg 54%
14:00 +21°C° 0 mm 2 m/s 712 mmHg 56%
15:00 +20°C° 0 mm 2 m/s 712 mmHg 59%
16:00 +20°C° 0 mm 2 m/s 712 mmHg 61%
17:00 +20°C° 0 mm 1 m/s 712 mmHg 67%
18:00 +18°C° 0 mm 1 m/s 712 mmHg 73%
19:00 +15°C° 0 mm 0 m/s 712 mmHg 80%
20:00 +15°C° 0 mm 0 m/s 712 mmHg 81%
21:00 +14°C° 0 mm 0 m/s 712 mmHg 82%
22:00 +14°C° 0 mm 0 m/s 712 mmHg 83%
23:00 +14°C° 0 mm 0 m/s 712 mmHg 83%

10 Agosto, Terça-feira

Tempo Temperatura Precipitação Vento Pressão Humidade
00:00 +14°C° 0 mm 1 m/s 712 mmHg 83%
01:00 +14°C° 0 mm 1 m/s 712 mmHg 82%
02:00 +14°C° 0 mm 1 m/s 712 mmHg 83%
03:00 +14°C° 0 mm 1 m/s 712 mmHg 84%
04:00 +13°C° 0 mm 1 m/s 712 mmHg 85%
05:00 +15°C° 0 mm 1 m/s 712 mmHg 81%
06:00 +16°C° 0 mm 1 m/s 712 mmHg 76%
07:00 +18°C° 0 mm 1 m/s 712 mmHg 71%
08:00 +19°C° 0.1 mm 1 m/s 712 mmHg 65%
09:00 +19°C° 0.1 mm 2 m/s 712 mmHg 60%
10:00 +20°C° 0.1 mm 2 m/s 712 mmHg 55%
11:00 +20°C° 0.1 mm 2 m/s 712 mmHg 56%
12:00 +20°C° 0.1 mm 2 m/s 712 mmHg 56%
13:00 +20°C° 0.1 mm 2 m/s 712 mmHg 57%
14:00 +20°C° 0.3 mm 2 m/s 712 mmHg 60%
15:00 +19°C° 0.3 mm 2 m/s 712 mmHg 63%
16:00 +20°C° 0.3 mm 1 m/s 712 mmHg 66%
17:00 +19°C° 0.3 mm 1 m/s 711 mmHg 72%
18:00 +16°C° 0.3 mm 1 m/s 711 mmHg 78%
19:00 +14°C° 0.3 mm 1 m/s 711 mmHg 84%
20:00 +14°C° 0 mm 1 m/s 711 mmHg 86%
21:00 +13°C° 0 mm 1 m/s 711 mmHg 87%
22:00 +13°C° 0 mm 1 m/s 711 mmHg 88%
23:00 +12°C° 0 mm 1 m/s 711 mmHg 89%
Mostrar mais